TimeCDT,TemperatureF,Dew PointF,Humidity,Sea Level PressureIn,VisibilityMPH,Wind Direction,Wind SpeedMPH,Gust SpeedMPH,PrecipitationIn,Events,Conditions,WindDirDegrees,DateUTC
12:27 AM,66.2,62.6,88,30.03,10.0,NE,12.7,18.4,N/A,,Mostly Cloudy,50,2013-09-08 05:27:00
12:56 AM,66.9,60.1,79,30.03,10.0,NE,11.5,-,N/A,,Overcast,50,2013-09-08 05:56:00
1:56 AM,66.9,55.0,66,30.05,10.0,ENE,15.0,-,N/A,,Overcast,60,2013-09-08 06:56:00
2:56 AM,66.0,52.0,60,30.05,10.0,ENE,11.5,-,N/A,,Overcast,70,2013-09-08 07:56:00
3:29 AM,64.4,53.6,68,30.06,10.0,ENE,12.7,-,N/A,,Overcast,70,2013-09-08 08:29:00
3:48 AM,64.4,53.6,68,30.06,10.0,ENE,10.4,-,N/A,,Overcast,60,2013-09-08 08:48:00
3:56 AM,64.0,54.0,70,30.05,10.0,ENE,11.5,-,N/A,,Overcast,70,2013-09-08 08:56:00
4:19 AM,62.6,53.6,72,30.07,10.0,ENE,6.9,-,N/A,,Mostly Cloudy,60,2013-09-08 09:19:00
4:56 AM,62.1,54.0,75,30.06,10.0,ENE,10.4,-,N/A,,Clear,60,2013-09-08 09:56:00
5:56 AM,60.1,54.0,80,30.06,10.0,ENE,10.4,-,N/A,,Clear,60,2013-09-08 10:56:00
6:56 AM,57.9,54.0,87,30.07,10.0,ENE,6.9,-,N/A,,Clear,60,2013-09-08 11:56:00
7:56 AM,61.0,54.0,78,30.07,10.0,ENE,6.9,-,N/A,,Clear,60,2013-09-08 12:56:00
8:56 AM,64.9,50.0,58,30.08,10.0,East,9.2,-,N/A,,Clear,100,2013-09-08 13:56:00
9:56 AM,66.9,48.9,52,30.08,10.0,East,9.2,-,N/A,,Clear,90,2013-09-08 14:56:00
10:56 AM,71.1,50.0,47,30.07,10.0,East,10.4,-,N/A,,Clear,80,2013-09-08 15:56:00
11:56 AM,73.9,51.1,45,30.06,10.0,SE,8.1,-,N/A,,Clear,140,2013-09-08 16:56:00
12:56 PM,75.0,51.1,43,30.03,10.0,SE,13.8,-,N/A,,Partly Cloudy,130,2013-09-08 17:56:00
1:56 PM,75.0,52.0,44,30.01,10.0,SE,10.4,-,N/A,,Clear,140,2013-09-08 18:56:00
2:56 PM,75.9,54.0,46,29.98,10.0,SE,10.4,-,N/A,,Mostly Cloudy,130,2013-09-08 19:56:00
3:56 PM,77.0,55.0,47,29.94,10.0,ESE,9.2,-,0.00,,Mostly Cloudy,120,2013-09-08 20:56:00
4:56 PM,77.0,55.9,48,29.93,10.0,ESE,8.1,-,N/A,,Overcast,110,2013-09-08 21:56:00
5:56 PM,75.9,59.0,56,29.94,10.0,SSE,10.4,-,N/A,,Overcast,150,2013-09-08 22:56:00
6:56 PM,73.0,60.1,64,29.94,10.0,SSE,12.7,-,N/A,,Overcast,150,2013-09-08 23:56:00
7:56 PM,72.0,61.0,68,29.95,10.0,SSE,11.5,-,0.00,,Overcast,150,2013-09-09 00:56:00
8:43 PM,71.6,62.6,73,29.96,10.0,SSE,10.4,-,N/A,,Overcast,150,2013-09-09 01:43:00
8:56 PM,71.1,62.1,73,29.95,10.0,SSE,8.1,-,N/A,,Overcast,160,2013-09-09 01:56:00
9:56 PM,69.1,63.0,81,29.93,10.0,SSE,10.4,-,0.00,Rain,Light Rain,160,2013-09-09 02:56:00
10:09 PM,69.8,62.6,78,29.94,10.0,SSE,6.9,-,0.00,,Mostly Cloudy,160,2013-09-09 03:09:00
10:28 PM,69.8,62.6,78,29.94,10.0,SE,6.9,-,0.00,,Mostly Cloudy,140,2013-09-09 03:28:00
10:56 PM,69.1,63.0,81,29.93,10.0,ESE,3.5,-,0.00,,Overcast,110,2013-09-09 03:56:00
11:56 PM,68.0,63.0,84,29.91,10.0,SE,6.9,-,N/A,,Overcast,140,2013-09-09 04:56:00